This demonstration page uses our WeatherBlox Daily Observations layout. Learn more.

Left ArrowRight Arrow

Hourly Observations for January 30, 2017

Temp ( °F °C ) Dew Point ( °F °C ) Humidity (%) Winds ( mph kmh ) Pressure ( in mb ) Visibility ( mi km ) Precip ( " mm )
12:53 am 00:53 Clear 39 3.9 22 -5.6 50 50 W 6 9 30.28 1026 10 16 0.00 0.00
1:53 am 01:53 Clear 33 0.6 22 -5.6 64 64 NNW 6 9 30.28 1025 10 16 0.00 0.00
2:53 am 02:53 Clear 31 -0.6 22 -5.6 69 69 SW 3 6 30.26 1025 10 16 0.00 0.00
3:53 am 03:53 Clear 29 -1.7 23 -5 78 78 NW 5 7 30.26 1025 10 16 0.00 0.00
4:53 am 04:53 Clear 28 -2.2 22 -5.6 78 78 NNW 3 6 30.24 1024 10 16 0.00 0.00
5:53 am 05:53 Clear 27 -2.8 21 -6.1 78 78 N 6 9 30.25 1024 10 16 0.00 0.00
6:53 am 06:53 Clear 26 -3.3 22 -5.6 84 84 Calm 30.27 1025 10 16 0.00 0.00
7:53 am 07:53 Sunny 26 -3.3 21 -6.1 81 81 NNW 7 11 30.28 1025 10 16 0.00 0.00
8:53 am 08:53 Sunny 33 0.6 24 -4.4 70 70 Calm 30.28 1025 10 16 0.00 0.00
9:53 am 09:53 Sunny 43 6.1 21 -6.1 42 42 Calm 30.27 1025 10 16 0.00 0.00
10:53 am 10:53 Sunny 54 12.2 21 -6.1 28 28 WSW 7 11 30.25 1024 10 16 0.00 0.00
11:53 am 11:53 Sunny 60 15.6 17 -8.3 19 19 WSW 15 24 30.21 1023 10 16 0.00 0.00
12:53 pm 12:53 Sunny 64 17.8 18 -7.8 17 17 SW 15 24 30.16 1021 10 16 0.00 0.00
1:53 pm 13:53 Sunny 67 19.4 14 -10 13 13 WSW 17 28 30.11 1020 10 16 0.00 0.00
2:53 pm 14:53 Sunny 69 20.6 12 -11.1 11 11 WSW 14 22 30.08 1019 10 16 0.00 0.00
3:53 pm 15:53 Sunny 69 20.6 10 -12.2 10 10 WSW 20 31 30.07 1018 10 16 0.00 0.00
4:53 pm 16:53 Sunny 69 20.6 12 -11.1 11 11 WSW 15 24 30.06 1018 10 16 0.00 0.00
5:53 pm 17:53 Sunny 67 19.4 12 -11.1 12 12 WSW 12 19 30.05 1018 10 16 0.00 0.00
6:53 pm 18:53 Clear 55 12.8 15 -9.4 20 20 SW 9 15 30.07 1018 10 16 0.00 0.00
7:53 pm 19:53 Clear 49 9.4 17 -8.3 28 28 SW 7 11 30.08 1019 10 16 0.00 0.00
8:53 pm 20:53 Clear 47 8.3 18 -7.8 31 31 SW 9 15 30.06 1018 10 16 0.00 0.00
9:53 pm 21:53 Clear 47 8.3 17 -8.3 30 30 SW 10 17 30.05 1018 10 16 0.00 0.00
10:53 pm 22:53 Clear 42 5.6 18 -7.8 38 38 WSW 10 17 30.04 1017 10 16 0.00 0.00
11:53 pm 23:53 Clear 45 7.2 16 -8.9 31 31 WSW 10 17 30.02 1017 10 16 0.00 0.00

Powered by AerisWeather